Flag for U.S.A. Weather past 2 weeks in Wilmington, North Carolina, U.S.A.

Now
68 °F

Sunny.


Feels Like: 68 °F
Forecast: 52 / 71 °F
Wind: 9 mph from Northwest

Location: New Hanover International Airport

Current Time: Apr 27, 2015 at 2:05:58 PM

Latest Report: Apr 27, 2015 at 12:53 PM


Visibility: 10 mi

Pressure: 29.82 "Hg

Humidity: 36%

Dew point: 40 °F

Location of WilmingtonLocation

Historic Weather in Wilmington — Graph

°F

Wilmington temperature yesterday

Maximum temperature yesterday: 67 °F (at 12:53 AM)
Minimum temperature yesterday: 53 °F (at 10:53 PM)
Average temperature yesterday: 60 °F

Past Weeks' High & Low Weather Summary

 TemperatureHumidityPressure
High80 °F (Apr 20, 1:53 PM)97% (Apr 13, 3:53 AM)30.33 "Hg (Apr 13, 3:53 AM)
Low48 °F (Apr 24, 6:53 AM)19% (Apr 24, 4:53 PM)29.54 "Hg (Apr 26, 3:53 AM)
Average66 °F75%29.97 "Hg
* Reported Apr 12 12:53 PM — Apr 27 12:53 PM, Wilmington, Weather by CustomWeather, © 2015

Note: Actual official high and low records may vary slightly from our data, if they occured in-between our weather recording intervals... More about our weather records

Advertising

Wilmington weather history for previous 24 hours

 ConditionsComfort  
Time TempWeatherWind HumidityBarometerVisibility
12:53 PM
Mon, Apr 27
68 °FSunny.9 mph36%29.82 "Hg10 mi
11:53 AM66 °FSunny.10 mph40%29.84 "Hg10 mi
10:53 AM63 °FSunny.9 mph50%29.82 "Hg10 mi
9:53 AM60 °FSunny.9 mph60%29.82 "Hg10 mi
8:53 AM56 °FSunny.13 mph72%29.80 "Hg10 mi
7:53 AM52 °FSunny.9 mph86%29.78 "Hg10 mi
6:53 AM48 °FFog.3 mph96%29.77 "Hg5 mi
5:53 AM49 °FOvercast.No wind97%29.74 "Hg9 mi
4:53 AM49 °FPassing clouds.5 mph93%29.73 "Hg10 mi
3:53 AM50 °FOvercast.6 mph93%29.73 "Hg10 mi
2:53 AM51 °FMostly cloudy.7 mph92%29.74 "Hg10 mi
1:53 AM51 °FOvercast.6 mph92%29.77 "Hg10 mi
12:53 AM52 °FLight rain. Mostly cloudy.3 mph86%29.76 "Hg10 mi
11:53 PM
Sun, Apr 26
53 °FLight rain. Overcast.5 mph83%29.78 "Hg10 mi
10:53 PM53 °FMostly cloudy.10 mph83%29.75 "Hg10 mi
9:53 PM54 °FOvercast.8 mph77%29.76 "Hg10 mi
8:53 PM54 °FOvercast.10 mph80%29.73 "Hg10 mi
7:53 PM55 °FOvercast.14 mph77%29.70 "Hg10 mi
6:53 PM57 °FOvercast.13 mph78%29.68 "Hg10 mi
5:53 PM58 °FOvercast.8 mph75%29.67 "Hg10 mi
4:53 PM61 °FPartly sunny.15 mph72%29.65 "Hg10 mi
3:53 PM63 °FPartly sunny.10 mph70%29.65 "Hg10 mi
2:53 PM61 °FMore clouds than sun.12 mph72%29.67 "Hg10 mi
Weather by CustomWeather, © 2015

See weather overviewHow to use our weather pages